This demonstration page uses our WeatherBlox Daily Observations layout. Learn more.

Left ArrowRight Arrow

Hourly Observations for December 29, 2017

Temp ( °F °C ) Dew Point ( °F °C ) Humidity (%) Winds ( mph kmh ) Pressure ( in mb ) Visibility ( mi km ) Precip ( " mm )
12:53 am 00:53 Clear 25 -3.9 24 -4.4 96 96 NNE 6 9 30.27 1025 8 13 0.00 0.00
1:53 am 01:53 Clear 24 -4.4 22 -5.6 91 91 N 6 9 30.27 1025 9 14 0.00 0.00
2:45 am 02:45 Partly Cloudy 23 -5 21 -6.1 92 92 Calm 30.42 1030 10 16 0.00 0.00
2:53 am 02:53 Mostly Cloudy 23 -5 22 -5.6 96 96 Calm 30.27 1025 10 16 0.00 0.00
3:16 am 03:16 Cloudy with Mist and Fog 26 -3.3 25 -3.9 96 96 E 3 6 30.42 1030 2 2 0.00 0.00
3:25 am 03:25 Mostly Cloudy with Freezing Fog 28 -2.2 27 -2.8 96 96 SE 7 11 30.39 1029 1 1 0.00 0.00
3:33 am 03:33 Mostly Cloudy with Freezing Fog 29 -1.7 28 -2.2 96 96 SE 12 19 30.36 1028 0 0 0.00 0.00
3:53 am 03:53 Mostly Cloudy with Freezing Fog 28 -2.2 28 -2.2 100 100 SE 10 17 30.24 1024 0 0 0.00 0.00
4:53 am 04:53 Mostly Cloudy with Freezing Fog 31 -0.6 30 -1.1 96 96 SE 8 13 30.24 1024 0 0 0.00 0.00
5:53 am 05:53 Mostly Cloudy with Fog 32 0 31 -0.6 96 96 Calm 30.25 1025 0 0 0.00 0.00
6:23 am 06:23 Mostly Cloudy with Fog 32 0 31 -0.6 96 96 NE 5 7 30.36 1028 1 1 0.00 0.00
6:53 am 06:53 Mostly Cloudy with Fog 32 0 31 -0.6 96 96 NNE 5 7 30.28 1025 1 1 0.00 0.00
7:53 am 07:53 Mostly Cloudy with Freezing Fog 30 -1.1 30 -1.1 100 100 N 5 7 30.29 1026 1 1 0.00 0.00
8:33 am 08:33 Mostly Cloudy with Freezing Fog 31 -0.6 31 -0.6 100 100 Calm 30.39 1029 0 0 0.00 0.00
8:53 am 08:53 Mostly Cloudy with Freezing Fog 31 -0.6 31 -0.6 100 100 Calm 30.29 1026 0 0 0.00 0.00
9:53 am 09:53 Mostly Cloudy with Fog 32 0 32 0 100 100 Calm 30.30 1026 0 0 0.00 0.00
10:48 am 10:48 Mostly Cloudy with Fog 34 1 34 1 100 100 WSW 3 6 30.36 1028 1 1 0.00 0.00
10:53 am 10:53 Mostly Cloudy with Fog 34 1.1 34 1.1 100 100 Calm 30.29 1026 1 1 0.00 0.00
11:19 am 11:19 Cloudy with Mist and Fog 35 1.7 35 1.7 100 100 WSW 5 7 30.36 1028 2 3 0.00 0.00
11:27 am 11:27 Cloudy with Mist and Fog 35 1.7 35 1.7 100 100 SW 5 7 30.36 1028 4 6 0.00 0.00
11:32 am 11:32 Cloudy with Mist and Fog 35 1.7 35 1.7 100 100 SW 3 6 30.36 1028 2 3 0.00 0.00
11:40 am 11:40 Cloudy with Mist and Fog 35 1.7 35 1.7 100 100 S 6 9 30.33 1027 3 5 0.00 0.00
11:53 am 11:53 Cloudy 35 1.7 35 1.7 100 100 VRB 3 6 30.26 1025 7 11 0.00 0.00
12:53 pm 12:53 Partly Cloudy 39 3.9 35 1.7 86 86 SSE 7 11 30.21 1023 10 16 0.00 0.00
1:53 pm 13:53 Sunny 48 8.9 36 2.2 63 63 VRB 3 6 30.15 1021 10 16 0.00 0.00
2:53 pm 14:53 Sunny 53 11.7 35 1.7 51 51 S 7 11 30.10 1019 10 16 0.00 0.00
3:53 pm 15:53 Sunny 57 13.9 35 1.7 44 44 S 8 13 30.06 1018 10 16 0.00 0.00
4:53 pm 16:53 Sunny 56 13.3 34 1.1 44 44 S 9 15 30.05 1018 10 16 0.00 0.00
5:53 pm 17:53 Sunny 49 9.4 34 1.1 56 56 SSE 6 9 30.06 1018 10 16 0.00 0.00
6:53 pm 18:53 Clear 42 5.6 33 0.6 71 71 SSE 8 13 30.08 1019 10 16 0.00 0.00
7:53 pm 19:53 Clear 38 3.3 31 -0.6 76 76 E 5 7 30.11 1020 10 16 0.00 0.00
8:53 pm 20:53 Clear 35 1.7 30 -1.1 82 82 Calm 30.10 1019 10 16 0.00 0.00
9:53 pm 21:53 Clear 31 -0.6 27 -2.8 85 85 N 7 11 30.10 1019 10 16 0.00 0.00
10:53 pm 22:53 Clear 30 -1.1 27 -2.8 88 88 N 9 15 30.11 1020 10 16 0.00 0.00
11:53 pm 23:53 Clear 29 -1.7 26 -3.3 89 89 N 6 9 30.11 1020 10 16 0.00 0.00

Powered by AerisWeather